TimeCDT,TemperatureF,Dew PointF,Humidity,Sea Level PressureIn,VisibilityMPH,Wind Direction,Wind SpeedMPH,Gust SpeedMPH,PrecipitationIn,Events,Conditions,WindDirDegrees,DateUTC
12:15 AM,68.9,64.8,87,29.81,10.0,South,16.1,-,N/A,,Scattered Clouds,180,2013-09-28 05:15:00
12:35 AM,68.9,65.3,88,29.85,10.0,WSW,17.3,23.0,N/A,,Mostly Cloudy,240,2013-09-28 05:35:00
12:55 AM,63.7,59.4,86,29.86,2.5,West,25.3,44.9,N/A,Rain-Thunderstorm,Heavy Thunderstorms and Rain,260,2013-09-28 05:55:00
1:15 AM,61.7,59.5,93,29.88,7.0,SSW,17.3,-,N/A,Rain-Thunderstorm,Thunderstorms and Rain,210,2013-09-28 06:15:00
1:35 AM,61.7,59.0,91,29.86,10.0,SW,9.2,-,N/A,Thunderstorm,Unknown,220,2013-09-28 06:35:00
1:55 AM,62.8,58.3,85,29.88,10.0,WSW,16.1,-,N/A,Thunderstorm,Mostly Cloudy,250,2013-09-28 06:55:00
2:15 AM,64.6,59.4,83,29.89,10.0,NW,18.4,25.3,N/A,Rain-Thunderstorm,Light Thunderstorms and Rain,320,2013-09-28 07:15:00
2:35 AM,63.0,55.4,76,29.92,10.0,NNW,19.6,24.2,N/A,Rain-Thunderstorm,Light Thunderstorms and Rain,330,2013-09-28 07:35:00
2:55 AM,58.6,54.1,85,29.94,10.0,North,24.2,33.4,N/A,,Overcast,350,2013-09-28 07:55:00
3:15 AM,55.9,50.9,83,29.95,10.0,North,29.9,39.1,N/A,,Overcast,10,2013-09-28 08:15:00
3:35 AM,54.5,47.8,78,29.96,10.0,North,27.6,39.1,N/A,,Scattered Clouds,10,2013-09-28 08:35:00
3:55 AM,53.4,46.4,77,29.98,10.0,North,23.0,36.8,N/A,,Scattered Clouds,10,2013-09-28 08:55:00
4:15 AM,52.9,46.2,78,29.99,10.0,North,23.0,34.5,N/A,,Scattered Clouds,10,2013-09-28 09:15:00
4:35 AM,52.2,46.4,81,30.00,10.0,North,23.0,29.9,N/A,,Scattered Clouds,360,2013-09-28 09:35:00
4:55 AM,51.8,45.7,80,30.02,10.0,North,18.4,26.5,N/A,,Scattered Clouds,10,2013-09-28 09:55:00
5:15 AM,51.6,45.0,78,30.03,10.0,North,19.6,24.2,N/A,,Scattered Clouds,360,2013-09-28 10:15:00
5:35 AM,51.4,44.4,77,30.03,10.0,North,18.4,24.2,N/A,,Mostly Cloudy,360,2013-09-28 10:35:00
5:55 AM,50.9,44.1,77,30.05,10.0,North,15.0,-,N/A,,Scattered Clouds,350,2013-09-28 10:55:00
6:15 AM,50.4,43.9,78,30.05,10.0,North,13.8,-,N/A,,Clear,350,2013-09-28 11:15:00
6:35 AM,50.0,43.7,79,30.06,10.0,North,11.5,19.6,N/A,,Clear,350,2013-09-28 11:35:00
6:55 AM,49.5,43.7,81,30.07,10.0,North,10.4,-,N/A,,Clear,350,2013-09-28 11:55:00
7:15 AM,48.9,43.7,82,30.08,10.0,NNW,8.1,-,N/A,,Clear,340,2013-09-28 12:15:00
7:35 AM,48.6,43.7,83,30.09,10.0,NNW,11.5,-,N/A,,Clear,330,2013-09-28 12:35:00
7:55 AM,48.2,43.7,84,30.10,10.0,NNW,10.4,-,N/A,,Clear,340,2013-09-28 12:55:00
8:15 AM,48.4,43.7,84,30.11,10.0,NNW,10.4,-,N/A,,Clear,330,2013-09-28 13:15:00
8:35 AM,50.2,43.7,78,30.11,10.0,North,9.2,-,N/A,,Clear,350,2013-09-28 13:35:00
8:55 AM,51.3,43.3,74,30.12,10.0,North,12.7,-,N/A,,Clear,360,2013-09-28 13:55:00
9:15 AM,52.7,43.3,70,30.13,10.0,North,10.4,-,N/A,,Clear,350,2013-09-28 14:15:00
9:35 AM,53.8,42.3,65,30.14,10.0,North,12.7,-,N/A,,Clear,350,2013-09-28 14:35:00
9:55 AM,55.6,41.9,60,30.15,10.0,North,15.0,23.0,N/A,,Clear,10,2013-09-28 14:55:00
10:15 AM,56.5,41.0,56,30.17,10.0,NNE,17.3,25.3,N/A,,Clear,20,2013-09-28 15:15:00
10:35 AM,57.2,40.5,54,30.17,10.0,NNE,19.6,23.0,N/A,,Clear,20,2013-09-28 15:35:00
10:55 AM,58.5,39.9,50,30.18,10.0,NNE,19.6,23.0,N/A,,Clear,30,2013-09-28 15:55:00
11:15 AM,59.4,39.9,49,30.19,10.0,NNE,18.4,-,N/A,,Clear,30,2013-09-28 16:15:00
11:35 AM,59.9,39.0,46,30.19,10.0,NE,20.7,-,N/A,,Clear,40,2013-09-28 16:35:00
11:55 AM,61.0,38.7,44,30.19,10.0,NNE,16.1,24.2,N/A,,Clear,20,2013-09-28 16:55:00
12:15 PM,61.7,38.7,43,30.19,10.0,NE,18.4,23.0,N/A,,Clear,40,2013-09-28 17:15:00
12:35 PM,61.7,38.7,43,30.19,10.0,NNE,17.3,25.3,N/A,,Clear,30,2013-09-28 17:35:00
12:55 PM,62.6,38.5,41,30.19,10.0,NNE,13.8,-,N/A,,Clear,30,2013-09-28 17:55:00
1:15 PM,63.5,39.2,41,30.19,10.0,North,15.0,21.9,N/A,,Clear,10,2013-09-28 18:15:00
1:35 PM,63.9,38.7,39,30.18,10.0,NNE,16.1,21.9,N/A,,Clear,20,2013-09-28 18:35:00
1:55 PM,64.4,40.1,41,30.18,10.0,North,11.5,20.7,N/A,,Clear,10,2013-09-28 18:55:00
2:15 PM,65.3,38.7,38,30.18,10.0,NE,11.5,19.6,N/A,,Clear,40,2013-09-28 19:15:00
2:35 PM,65.3,38.7,38,30.18,10.0,NNE,12.7,16.1,N/A,,Clear,20,2013-09-28 19:35:00
2:55 PM,65.1,37.6,36,30.17,10.0,North,10.4,21.9,N/A,,Clear,10,2013-09-28 19:55:00
3:15 PM,65.3,36.1,34,30.17,10.0,North,10.4,-,N/A,,Clear,10,2013-09-28 20:15:00
3:35 PM,65.7,34.9,32,30.17,10.0,NNE,9.2,19.6,N/A,,Clear,20,2013-09-28 20:35:00
3:55 PM,66.2,36.5,33,30.16,10.0,North,6.9,-,N/A,,Clear,360,2013-09-28 20:55:00
4:15 PM,66.2,34.0,30,30.16,10.0,NNW,10.4,-,N/A,,Clear,340,2013-09-28 21:15:00
4:35 PM,66.2,33.6,30,30.16,10.0,North,8.1,-,N/A,,Clear,360,2013-09-28 21:35:00
4:55 PM,66.2,32.5,29,30.16,10.0,North,3.5,-,N/A,,Clear,10,2013-09-28 21:55:00
5:15 PM,66.2,33.3,29,30.16,10.0,North,5.8,-,N/A,,Clear,10,2013-09-28 22:15:00
5:35 PM,66.2,34.0,30,30.15,10.0,NNW,6.9,-,N/A,,Clear,330,2013-09-28 22:35:00
5:55 PM,66.0,34.7,31,30.16,10.0,North,8.1,-,N/A,,Clear,10,2013-09-28 22:55:00
6:15 PM,65.5,34.2,31,30.16,10.0,North,5.8,-,N/A,,Clear,350,2013-09-28 23:15:00
6:35 PM,64.9,33.3,31,30.16,10.0,North,5.8,-,N/A,,Clear,350,2013-09-28 23:35:00
6:55 PM,63.5,35.4,35,30.16,10.0,North,6.9,-,N/A,,Clear,350,2013-09-28 23:55:00
7:15 PM,61.0,40.1,46,30.16,10.0,North,5.8,-,N/A,,Clear,10,2013-09-29 00:15:00
7:35 PM,58.3,43.0,57,30.16,10.0,NNE,4.6,-,N/A,,Clear,20,2013-09-29 00:35:00
7:55 PM,57.9,43.2,58,30.16,10.0,NNE,5.8,-,N/A,,Clear,20,2013-09-29 00:55:00
8:15 PM,55.4,42.3,61,30.17,10.0,NNE,5.8,-,N/A,,Clear,30,2013-09-29 01:15:00
8:35 PM,55.9,42.8,61,30.17,10.0,NNE,4.6,-,N/A,,Clear,30,2013-09-29 01:35:00
8:55 PM,54.0,43.7,68,30.18,10.0,NE,5.8,-,N/A,,Clear,40,2013-09-29 01:55:00
9:15 PM,54.5,43.2,66,30.19,10.0,NE,4.6,-,N/A,,Clear,50,2013-09-29 02:15:00
9:35 PM,55.0,41.0,59,30.19,10.0,NE,4.6,-,N/A,,Clear,50,2013-09-29 02:35:00
9:55 PM,54.0,40.3,60,30.20,10.0,ENE,3.5,-,N/A,,Clear,70,2013-09-29 02:55:00
10:15 PM,54.5,40.5,59,30.21,10.0,ENE,4.6,-,N/A,,Clear,70,2013-09-29 03:15:00
10:35 PM,53.4,40.5,61,30.21,10.0,Calm,Calm,-,N/A,,Clear,0,2013-09-29 03:35:00
10:55 PM,50.9,41.2,69,30.22,10.0,SSE,3.5,-,N/A,,Clear,150,2013-09-29 03:55:00
11:15 PM,50.7,41.2,70,30.22,10.0,SSE,3.5,-,N/A,,Clear,160,2013-09-29 04:15:00
11:35 PM,50.0,41.2,72,30.22,10.0,SSE,4.6,-,N/A,,Clear,160,2013-09-29 04:35:00
11:55 PM,50.0,41.7,73,30.22,10.0,South,3.5,-,N/A,,Clear,170,2013-09-29 04:55:00